Hill City, KS

5:30 PM CST on November 21, 2019 (GMT -0600)
Hill City Municipal

Weather History for KHLC - October, 2019

Change the Weather History Date:

Sunday, October 20, 2019

  Actual Average Record
Temperature  
Mean Temperature 56 °F 52 °F  
Max Temperature 66 °F 66 °F 94 °F (1947)
Min Temperature 46 °F 38 °F 19 °F (1989)
Degree Days  
Heating Degree Days 9    
Growing Degree Days 6 (Base 50)    
Moisture  
Dew Point 31 °F    
Average Humidity 42    
Maximum Humidity 62    
Minimum Humidity 18    
Precipitation  
Precipitation 0.00 in 0.05 in 0.03 in (2006)
Month to date precipitation 0.54 1.07  
Year to date precipitation 27.53 20.83  
Sea Level Pressure  
Sea Level Pressure 29.63 in    
Wind  
Wind Speed 13 mph ()    
Max Wind Speed 30 mph    
Max Gust Speed 51 mph    
Visibility 10.0 miles    
Events      
T = Trace of Precipitation, MM = Missing Value Source: Averaged Metar Reports

Daily Weather History Graph

Daily Weather History Graph

Search for Another Location

Airport or City:

Astronomy

Oct. 20, 2019 Rise Set
Actual Time 7:54 AM CDT 6:53 PM CDT
Civil Twilight 7:26 AM CDT 7:20 PM CDT
Nautical Twilight 6:55 AM CDT 7:51 PM CDT
Astronomical Twilight 6:24 AM CDT 8:22 PM CDT
Moon No Moon Rise 2:22 PM CDT (10/20)
Length of Visible Light 11h 53m
Length of Day
10h 59m
Waning Gibbous, 59% of the Moon is Illuminated
Oct 20
Waning Gibbous
Oct 21
Last Quarter
Oct 27
New
Nov 4
First Quarter
Nov 12
Full

Hourly Weather History & Observations

Time (CDT) Temp. Dew Point Humidity Pressure Visibility Wind Dir Wind Speed Gust Speed Precip Events Conditions
12:53 AM 51.1 °F 36.0 °F 56% 29.71 in 10.0 mi SSE 6.9 mph - N/A   Clear
1:53 AM 51.1 °F 35.1 °F 54% 29.70 in 10.0 mi SSE 11.5 mph - N/A   Clear
2:53 AM 50.0 °F 35.1 °F 57% 29.68 in 10.0 mi SSE 9.2 mph - N/A   Clear
3:53 AM 51.1 °F 35.1 °F 54% 29.64 in 10.0 mi SSE 11.5 mph 19.6 mph N/A   Clear
4:53 AM 52.0 °F 36.0 °F 54% 29.61 in 10.0 mi SSE 12.7 mph 23.0 mph N/A   Clear
5:53 AM 53.1 °F 37.0 °F 55% 29.59 in 10.0 mi SSE 15.0 mph 23.0 mph N/A   Clear
6:53 AM 54.0 °F 39.0 °F 57% 29.58 in 10.0 mi South 18.4 mph 31.1 mph N/A   Clear
7:53 AM 53.1 °F 39.9 °F 61% 29.59 in 10.0 mi South 17.3 mph 27.6 mph N/A   Clear
8:53 AM 54.0 °F 41.0 °F 62% 29.63 in 10.0 mi SW 11.5 mph - N/A   Clear
10:53 AM 60.1 °F 41.0 °F 49% 29.61 in 10.0 mi SW 23.0 mph 32.2 mph N/A   Partly Cloudy
11:53 AM 59.0 °F 32.0 °F 36% 29.60 in 10.0 mi NNW 13.8 mph 23.0 mph N/A   Clear
12:53 PM 62.1 °F 28.0 °F 28% 29.60 in 10.0 mi NNW 18.4 mph 27.6 mph N/A   Clear
1:53 PM 64.9 °F 28.0 °F 25% 29.58 in 10.0 mi NW 13.8 mph - N/A   Clear
2:53 PM 64.9 °F 19.9 °F 18% 29.59 in 10.0 mi WNW 21.9 mph 34.5 mph N/A   Clear
3:53 PM 63.0 °F 21.0 °F 20% 29.62 in 10.0 mi West 24.2 mph 36.8 mph N/A   Clear
4:53 PM 61.0 °F 19.9 °F 21% 29.61 in 10.0 mi West 11.5 mph 20.7 mph N/A   Mostly Cloudy
5:53 PM 62.1 °F 17.1 °F 18% 29.60 in 10.0 mi West 12.7 mph - N/A   Clear
6:53 PM 59.0 °F 18.0 °F 20% 29.63 in 10.0 mi West 6.9 mph - N/A   Clear
7:53 PM 55.9 °F 23.0 °F 28% 29.68 in 10.0 mi West 18.4 mph 27.6 mph N/A   Mostly Cloudy
8:53 PM 54.0 °F 28.0 °F 37% 29.68 in 10.0 mi West 23.0 mph 39.1 mph N/A   Mostly Cloudy
9:53 PM 51.1 °F 30.0 °F 44% 29.67 in 10.0 mi West 19.6 mph 34.5 mph N/A   Clear
10:53 PM 51.1 °F 32.0 °F 48% 29.63 in 10.0 mi WNW 29.9 mph 50.6 mph N/A   Overcast
11:53 PM 46.9 °F 33.1 °F 59% 29.66 in 10.0 mi WNW 24.2 mph 41.4 mph N/A   Clear